ONEWEB-0126

Last updated on Mon Jan 18 2021 00:02:03 GMT+0000 (Coordinated Universal Time)

1 47272U 20100Q 21017.58334491 -.01475851 00000-0 -82795-1 0 9998 2 47272 87.4329 29.0489 0010758 142.9464 144.4955 15.16492134 1807

Satellite not in orbit